This is the latest recevied weather packets stored in our database for station/object KC3SOZ. If no packets are shown the sender has not sent any weather packets the latest 10 day(s).
| Time | Temp. | Humidity | Pressure | Rain* | Wind** | Luminosity | Snow |
|---|---|---|---|---|---|---|---|
| 1777627226 | 0° C | 99% | 1014.9 hPa | 0 mm | - | 0 W/m² | - |
| 1777626923 | 0° C | 99% | 1014.8 hPa | 0 mm | - | 0 W/m² | - |
| 1777626620 | 0.56° C | 99% | 1015.1 hPa | 0 mm | - | 0 W/m² | - |
| 1777626315 | 1.11° C | 99% | 1015 hPa | 0 mm | - | 0 W/m² | - |
| 1777626014 | 1.11° C | 99% | 1015 hPa | 0 mm | - | 0 W/m² | - |
| 1777625708 | 1.11° C | 99% | 1015 hPa | 0 mm | - | 0 W/m² | - |
| 1777625404 | 1.11° C | 99% | 1015 hPa | 0 mm | - | 0 W/m² | - |
| 1777625101 | 0.56° C | 99% | 1014.8 hPa | 0 mm | - | 0 W/m² | - |
| 1777624797 | 0.56° C | 99% | 1014.6 hPa | 0 mm | - | 0 W/m² | - |
| 1777624492 | 0.56° C | 99% | 1014.7 hPa | 0 mm | - | 0 W/m² | - |
| 1777624190 | 1.11° C | 99% | 1014.8 hPa | 0 mm | - | 0 W/m² | - |
| 1777623886 | 1.11° C | 99% | 1014.8 hPa | 0 mm | - | 0 W/m² | - |
| 1777623582 | 1.11° C | 99% | 1014.6 hPa | 0 mm | - | 0 W/m² | - |
| 1777623281 | 1.11° C | 99% | 1014.6 hPa | 0 mm | - | 0 W/m² | - |
| 1777622977 | 1.67° C | 99% | 1014.6 hPa | 0 mm | - | 0 W/m² | - |
| 1777622674 | 1.67° C | 99% | 1014.7 hPa | 0 mm | - | 0 W/m² | - |
| 1777622371 | 1.67° C | 99% | 1014.7 hPa | 0 mm | - | 0 W/m² | - |
| 1777622067 | 2.22° C | 99% | 1014.6 hPa | 0 mm | - | 0 W/m² | - |
| 1777621762 | 2.22° C | 99% | 1014.4 hPa | 0 mm | - | 0 W/m² | - |
| 1777621460 | 2.78° C | 99% | 1014.3 hPa | 0 mm | - | 0 W/m² | - |
| 1777621155 | 2.78° C | 99% | 1014.6 hPa | 0 mm | - | 0 W/m² | - |
| 1777620851 | 2.78° C | 99% | 1014.5 hPa | 0 mm | - | 0 W/m² | - |
| 1777620548 | 3.33° C | 98% | 1014.7 hPa | 0 mm | - | 0 W/m² | - |
| 1777620245 | 3.33° C | 98% | 1014.8 hPa | 0 mm | - | 0 W/m² | - |
| 1777619941 | 3.89° C | 97% | 1014.6 hPa | 0 mm | - | 0 W/m² | - |
* Rain latest hour (hover to see other rain measurements)
** Current wind speed in m/s (hover to see current wind gust speed)